Weather observations for the past three days for
Olathe, New Century Aircenter
Metric (Imperial)
Date Time (cdt) Wind (kph) Vis. (km) Weather Sky Cond. Temperature (ºC) Relative Humidity Wind Chill (°C) Heat Index (°C) Pressure Precipitation (cm)
Air Dwpt 6 hour altimeter (cm) sea level (mb) 1 hr 3 hr 6 hr
Max. Min.
06 09:53 E 13 16.09 Fair CLR 30.6 21.1 57% 33 76.23 1014.7
06 08:53 E 11 16.09 Fair CLR 28.9 20.6 61% 31 76.23 1014.7
06 07:53 E 7 16.09 Fair CLR 26.7 20 67% 28 76.17 1013.9
06 06:53 E 9 16.09 Fair CLR 26.1 19.4 28.3 26.1 67% 27 76.15 1013.6
06 05:53 E 7 16.09 Fair CLR 26.1 19.4 67% 27 76.12 1013.2
06 04:53 E 6 16.09 Fair CLR 26.7 19.4 64% 28 76.1 1012.9
06 03:53 E 6 16.09 Fair CLR 26.7 20 67% 28 76.07 1012.7
06 01:53 SE 7 16.09 Fair CLR 27.8 20 63% 29 76.07 1012.6
05 23:53 E 7 16.09 Fair CLR 29.4 20.6 59% 32 76.1 1013.0
05 22:53 E 7 16.09 Fair CLR 30 20.6 57% 32 76.1 1012.7
05 21:53 E 7 16.09 Fair CLR 30 21.1 59% 33 76.05 1012.3
05 20:53 E 9 16.09 Fair CLR 31.7 20.6 52% 34 76 1011.6
05 19:53 E 7 16.09 Fair CLR 33.3 18.3 41% 34 75.95 1011.2
05 18:53 SE 7 16.09 Fair CLR 35.6 18.9 38.3 35.6 37% 38 75.95 1011.1
05 17:53 S 7 16.09 Fair CLR 36.7 17.8 33% 38 75.95 1011.0
05 16:53 E 7 16.09 Fair CLR 36.7 17.8 33% 38 75.97 1011.5
05 15:53 SE 6 16.09 Fair CLR 36.7 17.8 33% 38 76.02 1012.0
05 12:53 SE 11 16.09 A Few Clouds FEW065 36.1 18.9 36.1 21.7 36% 38 76.17 1014.1
05 11:53 Calm 16.09 Fair CLR 33.9 19.4 42% 36 76.23 1014.8
05 10:53 Vrbl 9 16.09 Fair CLR 33.3 20.6 47% 36 76.23 1014.7
05 09:53 S 7 16.09 Fair CLR 30.6 21.1 57% 33 76.2 1014.3
05 08:53 S 6 16.09 Fair CLR 27.8 20 63% 29 76.17 1014.0
05 07:53 Calm 16.09 Fair CLR 23.9 20 79% 24 76.12 1013.5
05 06:53 SE 7 16.09 Fair CLR 23.3 19.4 25 21.7 79% 76.1 1012.9
05 05:53 S 11 16.09 Fair CLR 22.2 19.4 84% 76.07 1012.7
05 04:53 S 9 16.09 Fair CLR 22.2 20 87% 76.05 1012.4
05 03:53 S 6 16.09 Fair CLR 22.2 19.4 84% 76.05 1012.4
05 02:53 S 6 16.09 Fair CLR 22.2 19.4 84% 76.05 1012.4
05 01:53 Calm 16.09 Fair CLR 23.3 19.4 79% 76.05 1012.6
05 00:53 Calm 16.09 Fair CLR 25 20 34.4 25 74% 26 76.07 1012.7
04 23:53 Calm 16.09 Fair CLR 25 19.4 71% 26 76.05 1012.6
04 22:53 SE 6 16.09 Fair CLR 26.1 20 69% 27 76.07 1012.6
04 21:53 SE 7 16.09 Fair CLR 27.2 20 65% 29 76.05 1012.3
04 20:53 SE 7 16.09 Fair CLR 30 20 55% 32 76 1011.6
04 19:53 S 9 16.09 Fair CLR 30.6 20 53% 33 75.95 1011.2
04 18:53 S 11 16.09 Fair CLR 34.4 19.4 36.7 34.4 41% 36 75.95 1011.2
04 17:53 S 15 16.09 Fair CLR 36.1 19.4 37% 38 75.97 1011.4
04 16:53 S 15 16.09 Fair CLR 36.1 19.4 37% 38 76 1011.7
04 15:53 S 15 16.09 Fair CLR 36.7 19.4 36% 39 76.02 1012.0
04 14:53 S 17 16.09 Fair CLR 36.1 19.4 37% 38 76.05 1012.3
04 13:53 S 15 G 33 16.09 Fair CLR 35.6 20 40% 38 76.07 1012.8
04 12:53 S 20 G 35 16.09 Fair CLR 34.4 19.4 34.4 22.2 41% 36 76.12 1013.2
04 11:53 SW 20 G 39 16.09 Fair CLR 33.3 20.6 47% 36 76.15 1013.9
04 10:53 S 24 G 31 16.09 Fair CLR 32.2 20.6 50% 35 76.17 1014.1
04 09:53 S 20 16.09 Fair CLR 29.4 20.6 59% 32 76.17 1014.2
04 08:53 S 19 16.09 Fair CLR 27.2 20.6 67% 29 76.17 1014.0
04 07:53 S 9 16.09 Fair CLR 24.4 20.6 79% 25 76.12 1013.7
04 06:53 S 11 16.09 Fair CLR 22.2 20 25.6 22.2 87% 76.1 1013.0
04 05:53 S 13 16.09 Fair CLR 22.8 20 84% 76.07 1012.7
04 04:53 S 9 16.09 Fair CLR 22.8 20 84% 76.05 1012.3
04 03:53 S 7 16.09 Fair CLR 23.3 20 82% 76 1011.6
04 02:53 S 11 16.09 Fair CLR 23.9 20 79% 24 75.97 1011.3
04 01:53 S 9 16.09 Fair CLR 24.4 20 77% 25 76 1011.5
04 00:53 S 11 16.09 Fair CLR 25.6 19.4 34.4 25.6 69% 27 76 1011.5
03 23:53 S 9 16.09 Fair CLR 25.6 19.4 69% 27 75.97 1011.4
03 22:53 S 9 16.09 Fair CLR 26.7 18.9 62% 28 75.95 1011.0
03 21:53 SE 11 16.09 Fair CLR 29.4 18.9 53% 31 75.95 1011.0
03 20:53 SE 11 16.09 Fair CLR 29.4 18.9 53% 31 75.9 1010.5
03 19:53 S 11 16.09 Fair CLR 30.6 18.9 50% 32 75.87 1010.0
03 17:53 S 19 16.09 Fair CLR 36.1 18.3 35% 38 75.84 1009.5
03 16:53 S 20 G 33 16.09 Fair CLR 36.7 17.8 33% 38 75.87 1010.0
03 15:53 S 19 16.09 Fair CLR 36.7 18.9 35% 39 75.92 1010.4
03 13:53 S 24 G 39 16.09 Fair CLR 35.6 18.9 37% 38 75.97 1011.4
03 12:53 S 26 G 39 16.09 Fair CLR 34.4 19.4 35 22.8 41% 36 76.05 1012.2
03 11:53 S 26 G 37 16.09 Fair CLR 33.3 19.4 44% 35 76.1 1012.8
03 10:53 S 22 16.09 Fair CLR 32.2 20 48% 34 76.1 1013.2
Date Time (cdt) Wind (kph) Vis. (km) Weather Sky Cond. Air Dwpt Max. Min. Relative Humidity Wind Chill (°C) Heat Index (°C) altimeter (cm) sea level (mb) 1 hr 3 hr 6 hr
6 hour
Temperature (ºC) Pressure Precipitation (cm)